Location: Daytona Beach
(29.2106°N, 81.0231°W)
Time: 12:21:34
(UTC-04:00)

RS-15 - Visible Passes

Search period start: 25 September 2021 00:00
Search period end: 05 October 2021 00:00
Orbit: 1884 x 2160 km, 64.8° (Epoch: 24 September)

Date Brightness Start Highest point End Pass type
(mag) Time Alt. Az. Time Alt. Az. Time Alt. Az.
25 Sep 9.4 01:46:49 10° NNW 01:51:07 26° NNW 01:51:07 26° NNW visible
25 Sep 9.8 23:01:11 10° N 23:06:56 14° NNE 23:08:08 14° NE visible
26 Sep 9.4 01:10:55 10° NNW 01:15:50 28° N 01:15:50 28° N visible
26 Sep 9.9 22:27:08 10° NNE 22:29:29 11° NNE 22:31:50 10° NE visible
27 Sep 9.4 00:35:06 10° NNW 00:40:36 28° N 00:40:36 28° N visible
27 Sep 9.9 02:47:31 10° NW 02:48:19 13° NW 02:48:19 13° NW visible
27 Sep 10.2 19:28:38 10° NNW 19:30:00 10° NNW 19:31:22 10° NNW visible
27 Sep 9.4 23:59:23 10° NNW 00:05:25 26° NNE 00:05:25 26° NNE visible
28 Sep 9.7 02:11:09 10° NNW 02:13:08 17° NW 02:13:08 17° NW visible
28 Sep 9.5 23:23:47 10° N 23:30:16 23° NNE 23:30:16 23° NNE visible
29 Sep 9.6 01:34:58 10° NNW 01:37:59 21° NNW 01:37:59 21° NNW visible
29 Sep 9.5 22:48:20 10° N 22:55:10 19° NNE 22:55:10 19° NNE visible
30 Sep 9.5 00:58:55 10° NNW 01:02:53 25° NNW 01:02:53 25° NNW visible
30 Sep 9.7 22:13:08 10° N 22:19:14 15° NNE 22:20:05 15° NE visible
01 Oct 9.4 00:23:00 10° NNW 00:27:49 28° N 00:27:49 28° N visible
01 Oct 9.8 21:38:44 10° N 21:41:50 11° NNE 21:44:55 10° NE visible
01 Oct 9.3 23:47:11 10° NNW 23:52:47 29° N 23:52:47 29° N visible
02 Oct 9.9 01:59:42 10° NW 02:00:29 12° NW 02:00:29 12° NW visible
02 Oct 9.3 23:11:27 10° NNW 23:17:46 27° NNE 23:17:46 27° NNE visible
03 Oct 9.8 01:23:18 10° NNW 01:25:29 18° NW 01:25:29 18° NW visible
03 Oct 9.3 22:35:49 10° N 22:42:47 24° NNE 22:42:47 24° NNE visible
04 Oct 9.6 00:47:06 10° NNW 00:50:30 23° NNW 00:50:30 23° NNW visible
04 Oct 9.4 22:00:21 10° N 22:07:49 20° NE 22:07:49 20° NE visible
